Weather History for Cork, Ireland

Change the Weather History Date:

Thursday, April 17, 2014

  Actual Average Record
Temperature  
Mean Temperature 51 °F -  
Max Temperature 58 °F 55 °F 60 °F (2003)
Min Temperature 44 °F 42 °F 32 °F (1999)
Degree Days  
Heating Degree Days 14    
Growing Degree Days 1 (Base 50)    
Moisture  
Dew Point 44 °F    
Average Humidity 77    
Maximum Humidity 100    
Minimum Humidity 41    
Precipitation  
Precipitation 0.00 in 0.10 in - ()
Sea Level Pressure  
Sea Level Pressure 30.20 in    
Wind  
Wind Speed 8 mph ()    
Max Wind Speed 18 mph    
Max Gust Speed -    
Visibility 7.7 miles    
Events Rain    
Averages and records for this station are not official NWS values.
T = Trace of Precipitation, MM = Missing Value Source: Averaged Metar Reports

Daily Weather History Graph

Daily Weather History Graph

Search for Another Location

Airport:

Trip Planner

Search our weather history database for the weather conditions in past years. The results will help you decide how hot, cold, wet, or windy it might be!

Date:

Astronomy

Apr. 17, 2014 Rise Set
Actual Time 6:33 AM IST 8:34 PM IST
Civil Twilight 5:57 AM IST 9:10 PM IST
Nautical Twilight 5:12 AM IST 9:55 PM IST
Astronomical Twilight 4:21 AM IST 10:47 PM IST
Moon 11:21 PM IST (4/17) 7:43 AM IST (4/17)
Length of Visible Light 15h 13m
Length of Day
14h 00m
Waning Gibbous, 95% of the Moon is Illuminated
Apr 17
Waning Gibbous
Apr 22
Last Quarter
Apr 29
New
May 7
First Quarter
May 14
Full

Hourly Weather History & Observations

Time (IST) Temp. Windchill Dew Point Humidity Pressure Visibility Wind Dir Wind Speed Gust Speed Precip Events Conditions
12:00 AM 46 °F - 45 °F 94% 30.22 in 10 mi SW 4.5 mph - -   Partly Cloudy
12:00 AM 46.4 °F 44.3 °F 44.6 °F 93% 30.18 in 6.2 mi SW 4.6 mph - N/A   Scattered Clouds
12:30 AM 46.4 °F 42.4 °F 46.4 °F 100% 30.18 in 6.2 mi SW 8.1 mph - N/A   Mostly Cloudy
1:00 AM 48 °F - 47 °F 95% 30.21 in 10 mi WSW 6.7 mph - -   Mostly Cloudy
1:00 AM 48.2 °F - 46.4 °F 93% 30.18 in 6.2 mi WSW 5.8 mph - N/A   Mostly Cloudy
1:30 AM 48.2 °F - 46.4 °F 93% 30.18 in 6.2 mi West 4.6 mph - N/A   Mostly Cloudy
2:00 AM 48 °F - 47 °F 95% 30.21 in 10 mi West 4.5 mph - -   Mostly Cloudy
2:00 AM 48.2 °F - 46.4 °F 93% 30.18 in 6.2 mi West 4.6 mph - N/A   Mostly Cloudy
2:30 AM 48.2 °F - 46.4 °F 93% 30.18 in 6.2 mi SW 2.3 mph - N/A   Mostly Cloudy
3:00 AM 48 °F - 47 °F 96% 30.20 in 10 mi SW 2.2 mph - -   Mostly Cloudy
3:00 AM 48.2 °F - 46.4 °F 93% 30.18 in 6.2 mi SW 2.3 mph - N/A   Mostly Cloudy
3:30 AM 48.2 °F - 46.4 °F 93% 30.18 in 6.2 mi WSW 5.8 mph - N/A   Mostly Cloudy
4:00 AM 48 °F - 47 °F 96% 30.19 in 10 mi WSW 4.5 mph - -   Mostly Cloudy
4:00 AM 48.2 °F - 48.2 °F 100% 30.15 in 6.2 mi WSW 4.6 mph - N/A   Mostly Cloudy
4:30 AM 48.2 °F - 48.2 °F 100% 30.18 in 6.2 mi West 5.8 mph - N/A   Mostly Cloudy
5:00 AM 49 °F - 48 °F 94% 30.20 in 10 mi West 4.5 mph - -   Mostly Cloudy
5:00 AM 50.0 °F - 48.2 °F 94% 30.18 in 6.2 mi West 4.6 mph - N/A   Mostly Cloudy
5:30 AM 48.2 °F - 48.2 °F 100% 30.18 in 6.2 mi West 4.6 mph - N/A   Mostly Cloudy
6:00 AM 49 °F - 48 °F 93% 30.19 in 11 mi West 4.5 mph - -   Mostly Cloudy
6:00 AM 50.0 °F - 48.2 °F 94% 30.18 in 6.2 mi West 4.6 mph - N/A   Mostly Cloudy
6:30 AM 50.0 °F - 48.2 °F 94% 30.15 in 6.2 mi WSW 4.6 mph - N/A   Mostly Cloudy
7:00 AM 49 °F - 47 °F 92% 30.19 in 12 mi WSW 4.5 mph - -   Mostly Cloudy
7:00 AM 50.0 °F - 48.2 °F 94% 30.15 in 6.2 mi WSW 4.6 mph - N/A   Mostly Cloudy
7:30 AM 50.0 °F - 48.2 °F 94% 30.18 in 6.2 mi WNW 8.1 mph - N/A   Mostly Cloudy
8:00 AM 49 °F - 47 °F 92% 30.22 in 19 mi NW 8.9 mph - -   Mostly Cloudy
8:00 AM 50.0 °F - 48.2 °F 94% 30.21 in 6.2 mi NW 8.1 mph - N/A   Mostly Cloudy
8:30 AM 50.0 °F - 46.4 °F 87% 30.21 in 6.2 mi NW 10.4 mph - N/A   Mostly Cloudy
9:00 AM 50 °F - 46 °F 79% 30.24 in 25 mi NW 13.4 mph - -   Mostly Cloudy
9:00 AM 50.0 °F - 46.4 °F 87% 30.21 in 6.2 mi NW 12.7 mph - N/A   Mostly Cloudy
9:30 AM 51.8 °F - 44.6 °F 76% 30.21 in 6.2 mi NW 11.5 mph - N/A   Mostly Cloudy
10:00 AM 52 °F - 44 °F 66% 30.24 in 31 mi NW 15.7 mph - -   Partly Cloudy
10:00 AM 51.8 °F - 44.6 °F 76% 30.21 in 6.2 mi NW 15.0 mph - N/A   Scattered Clouds
10:30 AM 53.6 °F - 42.8 °F 67% 30.21 in 6.2 mi WNW 13.8 mph - N/A   Scattered Clouds
11:00 AM 53 °F - 43 °F 59% 30.22 in 31 mi WNW 13.4 mph - -   Scattered Clouds
11:00 AM 53.6 °F - 42.8 °F 67% 30.21 in 6.2 mi WNW 11.5 mph - N/A   Mostly Cloudy
11:30 AM 53.6 °F - 42.8 °F 67% 30.21 in 6.2 mi West 12.7 mph - N/A   Mostly Cloudy
12:00 PM 56 °F - 42 °F 48% 30.22 in 31 mi West 11.2 mph - -   Scattered Clouds
12:00 PM 57.2 °F - 42.8 °F 59% 30.21 in 6.2 mi West 11.5 mph - N/A   Mostly Cloudy
12:30 PM 55.4 °F - 42.8 °F 63% 30.21 in 6.2 mi WNW 11.5 mph - N/A   Mostly Cloudy
1:00 PM 57 °F - 45 °F 54% 30.22 in 31 mi WNW 13.4 mph - -   Scattered Clouds
1:00 PM 57.2 °F - 44.6 °F 63% 30.21 in 6.2 mi WNW 12.7 mph - N/A   Mostly Cloudy
1:30 PM 59.0 °F - 39.2 °F 48% 30.21 in 6.2 mi NW 13.8 mph - N/A   Mostly Cloudy
2:00 PM 58 °F - 41 °F 43% 30.22 in 31 mi NNW 13.4 mph - -   Scattered Clouds
2:00 PM 59.0 °F - 41.0 °F 51% 30.21 in 6.2 mi NNW 12.7 mph - N/A   Mostly Cloudy
2:30 PM 57.2 °F - 39.2 °F 51% 30.21 in 6.2 mi NW 16.1 mph - N/A   Mostly Cloudy
3:00 PM 57 °F - 40 °F 41% 30.21 in 25 mi WNW 13.4 mph - -   Scattered Clouds
3:00 PM 57.2 °F - 39.2 °F 51% 30.18 in 6.2 mi WNW 13.8 mph - N/A   Mostly Cloudy
3:30 PM 55.4 °F - 37.4 °F 51% 30.21 in 6.2 mi WNW 13.8 mph - N/A   Mostly Cloudy
4:00 PM 55 °F - 40 °F 46% 30.22 in 25 mi NW 15.7 mph - -   Scattered Clouds
4:00 PM 55.4 °F - 41.0 °F 58% 30.21 in 6.2 mi NW 15.0 mph - N/A   Mostly Cloudy
4:30 PM 55.4 °F - 41.0 °F 58% 30.21 in 6.2 mi NW 15.0 mph - N/A   Mostly Cloudy
5:00 PM 54 °F - 43 °F 57% 30.22 in 25 mi NNW 17.9 mph - -   Partly Cloudy
5:00 PM 53.6 °F - 42.8 °F 67% 30.21 in 6.2 mi NNW 18.4 mph - N/A   Mostly Cloudy
5:30 PM 51.8 °F - 42.8 °F 71% 30.21 in 6.2 mi NNW 18.4 mph - N/A   Mostly Cloudy
6:00 PM 52 °F - 43 °F 62% 30.23 in 25 mi NW 13.4 mph - -   Mostly Cloudy
6:00 PM 51.8 °F - 42.8 °F 71% 30.21 in 6.2 mi NW 12.7 mph - N/A   Mostly Cloudy
6:30 PM 51.8 °F - 42.8 °F 71% 30.21 in 6.2 mi NNW 13.8 mph - N/A   Mostly Cloudy
7:00 PM 50 °F - 43 °F 69% 30.22 in 22 mi NW 13.4 mph - -   Mostly Cloudy
7:00 PM 50.0 °F - 42.8 °F 76% 30.21 in 6.2 mi NW 13.8 mph - N/A   Mostly Cloudy
7:30 PM 50.0 °F - 42.8 °F 76% 30.18 in 6.2 mi NW 13.8 mph - N/A   Mostly Cloudy
8:00 PM 50 °F - 43 °F 69% 30.22 in 19 mi NW 11.2 mph - -   Mostly Cloudy
8:00 PM 50.0 °F - 42.8 °F 76% 30.21 in 6.2 mi NW 11.5 mph - N/A   Mostly Cloudy
8:30 PM 50.0 °F - 42.8 °F 76% 30.21 in 6.2 mi NW 11.5 mph - N/A   Mostly Cloudy
9:00 PM 49 °F - 43 °F 74% 30.23 in 19 mi NNW 8.9 mph - -   Mostly Cloudy
9:00 PM 50.0 °F - 42.8 °F 76% 30.21 in 6.2 mi NNW 9.2 mph - N/A   Mostly Cloudy
9:30 PM 48.2 °F - 44.6 °F 87% 30.21 in 6.2 mi NW 11.5 mph - N/A Rain Light Rain
10:00 PM 48 °F - 44 °F 83% 30.25 in 16 mi NW 8.9 mph - - Rain Light Rain
10:00 PM 48.2 °F - 44.6 °F 87% 30.21 in 6.2 mi NW 9.2 mph - N/A Rain Light Rain
10:30 PM 48.2 °F - 44.6 °F 87% 30.21 in 6.2 mi NW 6.9 mph - N/A   Mostly Cloudy
11:00 PM 48 °F - 45 °F 86% 30.25 in 16 mi NW 6.7 mph - - Rain Light Rain
11:00 PM 48.2 °F - 44.6 °F 87% 30.21 in 6.2 mi NW 6.9 mph - N/A   Mostly Cloudy
11:30 PM 48.2 °F - 44.6 °F 87% 30.21 in 6.2 mi NW 9.2 mph - N/A   Mostly Cloudy